Location: ????????
(56.0167°N, 38.0333°E)
Time: 07:10:49
(UTC+00:00)

Cosmos 1356 Rocket - Pass Details

Date: 19 May 2025
Orbit: 517 x 566 km, 81.2° (Epoch: 15 June)

Event Time Altitude Azimuth Distance (km) Brightness Sun altitude
Exits shadow 18:52:57 - 176° (S) 2,213 5.9 -7.6°
Reaches altitude 10° 18:53:50 10° 174° (S) 1,861 5.5 -7.7°
Maximum altitude 18:57:49 52° 98° (E) 712 3.6 -8.0°
Drops below altitude 10° 19:01:49 10° 23° (NNE) 1,859 6.5 -8.3°
Sets 19:04:01 0° 18° (NNE) 2,752 7.5 -8.5°
